N8HON Weather Reports


Display with metric or nautical units.
time (UTC)temp
F
wind
direction
speed
MPH
gust
MPH
rain 1hr
in
rain 24hr
in
rain mn
in
humidity
%
barometer
mb
20260508033803 48 170 1.0 5.0 0.00 0.00 0.00 51 1012.0
20260508033301 48 135 0.0 1.0 0.00 0.00 0.00 56 1011.8
20260508032758 48 288 0.0 3.0 0.00 0.00 0.00 53 1011.8
20260508032255 48 264 2.0 2.0 0.00 0.00 0.00 55 1011.8
20260508031752 48 251 2.0 2.0 0.00 0.00 0.00 55 1011.8
20260508031249 48 227 0.0 0.0 0.00 0.00 0.00 55 1011.7
20260508030745 48 249 0.0 0.0 0.00 0.00 0.00 55 1011.7
20260508030243 48 198 0.0 0.0 0.00 0.00 0.00 56 1011.5
20260508025739 50 155 0.0 2.0 0.00 0.00 0.00 52 1011.3
20260508025236 48 262 2.0 5.0 0.00 0.00 0.00 55 1011.4
20260508024732 49 269 2.0 2.0 0.00 0.00 0.00 56 1011.4
20260508024229 49 282 1.0 2.0 0.00 0.00 0.00 54 1011.3
20260508023726 49 306 3.0 3.0 0.00 0.00 0.00 55 1011.4
20260508023224 49 184 0.0 2.0 0.00 0.00 0.00 56 1011.3
20260508022719 50 122 0.0 0.0 0.00 0.00 0.00 58 1011.2
20260508022216 50 300 1.0 3.0 0.00 0.00 0.00 57 1011.5
20260508021713 50 243 1.0 2.0 0.00 0.00 0.00 55 1011.2
20260508021208 50 260 1.0 2.0 0.00 0.00 0.00 57 1011.2
20260508020706 50 278 2.0 2.0 0.00 0.00 0.00 57 1011.3
20260508020203 50 115 1.0 5.0 0.00 0.00 0.00 56 1011.2
20260508015700 50 278 0.0 0.0 0.00 0.00 0.00 58 1011.5
20260508015157 50 194 0.0 0.0 0.00 0.00 0.00 57 1011.0
20260508014653 50 240 1.0 2.0 0.00 0.00 0.00 59 1011.1
20260508014149 50 218 2.0 2.0 0.00 0.00 0.00 55 1011.1
20260508013646 50 213 0.0 0.0 0.00 0.00 0.00 58 1011.1
20260508013142 51 186 1.0 8.0 0.00 0.00 0.00 54 1010.7
20260508012640 50 181 3.0 5.0 0.00 0.00 0.00 56 1010.7
20260508012137 50 231 2.0 2.0 0.00 0.00 0.00 57 1010.7
20260508011636 51 296 3.0 3.0 0.00 0.00 0.00 56 1010.6
20260508011133 50 288 2.0 5.0 0.00 0.00 0.00 57 1010.5
20260508010629 51 142 0.0 2.0 0.00 0.00 0.00 56 1010.4
20260508010128 51 172 0.0 1.0 0.00 0.00 0.00 57 1010.4
20260508005624 51 317 1.0 2.0 0.00 0.00 0.00 56 1010.0
20260508005120 51 277 1.0 2.0 0.00 0.00 0.00 57 1010.1
20260508004616 52 264 1.0 3.0 0.00 0.00 0.00 55 1010.1
20260508004113 52 205 2.0 2.0 0.00 0.00 0.00 54 1010.1
20260508003609 51 277 0.0 0.0 0.00 0.00 0.00 58 1010.1
20260508003107 52 223 0.0 2.0 0.00 0.00 0.00 55 1010.0
20260508002603 53 163 1.0 5.0 0.00 0.00 0.00 54 1010.0
20260508002101 53 162 1.0 3.0 0.00 0.00 0.00 53 1009.9
20260508001556 53 164 0.0 3.0 0.00 0.00 0.00 53 1010.1
20260508001053 54 166 2.0 3.0 0.00 0.00 0.00 52 1009.9
20260508000548 54 217 1.0 2.0 0.00 0.00 0.00 50 1009.7
20260508000046 54 139 0.0 1.0 0.00 0.00 0.00 53 1009.6
20260507235543 54 141 1.0 3.0 0.00 0.00 0.00 50 1009.5
20260507235040 54 155 0.0 2.0 0.00 0.00 0.00 49 1009.6
20260507234536 54 130 2.0 5.0 0.00 0.00 0.00 48 1009.3
20260507234033 55 287 1.0 2.0 0.00 0.00 0.00 51 1009.3
20260507233530 55 106 0.0 3.0 0.00 0.00 0.00 48 1009.4
20260507233029 55 162 0.0 0.0 0.00 0.00 0.00 51 1009.2
20260507232524 56 77 1.0 1.0 0.00 0.00 0.00 47 1009.3
20260507232022 56 111 1.0 1.0 0.00 0.00 0.00 50 1009.2
20260507231518 55 119 0.0 0.0 0.00 0.00 0.00 47 1009.2
20260507231016 56 150 0.0 1.0 0.00 0.00 0.00 50 1009.1
20260507230512 56 253 1.0 2.0 0.00 0.00 0.00 50 1008.8
20260507230009 56 145 0.0 3.0 0.00 0.00 0.00 46 1008.6
20260507225504 57 155 0.0 6.0 0.00 0.00 0.00 45 1008.6
20260507225000 57 210 2.0 3.0 0.00 0.00 0.00 48 1008.6
20260507224456 57 289 2.0 6.0 0.00 0.00 0.00 47 1008.6
20260507223953 58 154 2.0 6.0 0.00 0.00 0.00 47 1008.9
20260507223449 57 210 1.0 2.0 0.00 0.00 0.00 48 1008.4
20260507222946 57 129 1.0 2.0 0.00 0.00 0.00 48 1008.4
20260507222443 57 84 3.0 5.0 0.00 0.00 0.00 47 1008.3
20260507221939 58 138 1.0 10.0 0.00 0.00 0.00 47 1008.3
20260507221436 58 75 2.0 2.0 0.00 0.00 0.00 48 1008.4
20260507220932 58 115 3.0 5.0 0.00 0.00 0.00 45 1008.1
20260507220430 59 191 3.0 5.0 0.00 0.00 0.00 46 1008.1
20260507215927 59 308 3.0 10.0 0.00 0.00 0.00 48 1008.0
20260507215423 60 208 3.0 6.0 0.00 0.00 0.00 45 1008.0
20260507214920 61 213 1.0 8.0 0.00 0.00 0.00 45 1007.6
20260507214418 62 135 1.0 5.0 0.00 0.00 0.00 47 1007.9
20260507213913 61 163 1.0 3.0 0.00 0.00 0.00 48 1007.6
20260507213410 62 120 4.0 6.0 0.00 0.00 0.00 43 1007.6
20260507212907 62 108 2.0 6.0 0.00 0.00 0.00 43 1007.7
20260507212403 61 195 1.0 3.0 0.00 0.00 0.00 47 1007.8
20260507211900 62 69 4.0 7.0 0.00 0.00 0.00 44 1007.8
20260507211356 61 336 2.0 8.0 0.00 0.00 0.00 47 1007.9
20260507210853 61 258 1.0 2.0 0.00 0.00 0.00 46 1007.8
20260507210350 62 267 1.0 2.0 0.00 0.00 0.00 46 1007.6
20260507205847 62 211 1.0 3.0 0.00 0.00 0.00 46 1007.7
20260507205344 62 44 2.0 6.0 0.00 0.00 0.00 45 1007.6
20260507204840 62 74 4.0 7.0 0.00 0.00 0.00 48 1007.8
20260507204337 61 121 0.0 2.0 0.00 0.00 0.00 47 1007.5
20260507203835 64 114 1.0 2.0 0.00 0.00 0.00 46 1007.7
20260507203333 64 95 4.0 5.0 0.00 0.00 0.00 45 1007.6
20260507202828 64 312 2.0 6.0 0.00 0.00 0.00 46 1007.5
20260507202325 64 103 2.0 3.0 0.00 0.00 0.00 48 1007.5
20260507201821 63 145 1.0 7.0 0.00 0.00 0.00 44 1007.7
20260507201317 64 330 2.0 8.0 0.00 0.00 0.00 46 1007.7
20260507200813 64 69 2.0 5.0 0.00 0.00 0.00 44 1007.7
20260507200309 65 73 2.0 5.0 0.00 0.00 0.00 42 1007.7
20260507195805 66 234 1.0 6.0 0.00 0.00 0.00 42 1007.7
20260507195305 65 230 1.0 5.0 0.00 0.00 0.00 46 1007.6
20260507194800 64 6 1.0 2.0 0.00 0.00 0.00 44 1007.8
20260507194256 65 298 2.0 7.0 0.00 0.00 0.00 43 1007.8
20260507193753 64 109 3.0 5.0 0.00 0.00 0.00 43 1007.8
20260507193249 63 112 0.0 5.0 0.00 0.00 0.00 47 1007.8
20260507192745 62 41 2.0 2.0 0.00 0.00 0.00 47 1007.9
20260507192242 64 107 1.0 7.0 0.00 0.00 0.00 47 1007.9
20260507191738 66 223 5.0 6.0 0.00 0.00 0.00 42 1007.9
20260507191235 65 111 4.0 5.0 0.00 0.00 0.00 47 1007.8
20260507190732 63 91 3.0 3.0 0.00 0.00 0.00 51 1008.0
20260507190231 63 177 3.0 5.0 0.00 0.00 0.00 46 1008.0
20260507185729 64 311 2.0 5.0 0.00 0.00 0.00 48 1008.1
20260507185225 66 267 3.0 3.0 0.00 0.00 0.00 46 1008.0
20260507184723 65 313 3.0 5.0 0.00 0.00 0.00 46 1008.0
20260507184221 65 269 2.0 2.0 0.00 0.00 0.00 50 1008.1
20260507183717 64 159 2.0 6.0 0.00 0.00 0.00 50 1007.9
20260507183214 64 116 1.0 3.0 0.00 0.00 0.00 49 1008.1
20260507182711 64 302 5.0 6.0 0.00 0.00 0.00 51 1008.0
20260507182206 62 101 1.0 3.0 0.00 0.00 0.00 52 1008.1
20260507181703 63 179 2.0 6.0 0.00 0.00 0.00 51 1008.1
20260507181200 63 104 2.0 7.0 0.00 0.00 0.00 56 1008.2
20260507180656 62 98 1.0 2.0 0.00 0.00 0.00 51 1008.3
20260507180154 63 114 3.0 6.0 0.00 0.00 0.00 55 1008.3
20260507175649 63 317 3.0 5.0 0.00 0.00 0.00 52 1008.3
20260507175146 62 94 4.0 7.0 0.00 0.00 0.00 55 1008.4
20260507174643 62 145 2.0 8.0 0.00 0.00 0.00 52 1008.5
20260507174142 63 107 3.0 5.0 0.00 0.00 0.00 53 1008.8
20260507173639 64 220 2.0 5.0 0.00 0.00 0.00 51 1008.8
20260507173135 63 230 1.0 2.0 0.00 0.00 0.00 53 1008.9
20260507172632 63 306 3.0 5.0 0.00 0.00 0.00 55 1008.9
20260507172129 63 64 1.0 3.0 0.00 0.00 0.00 55 1009.0
20260507171624 63 171 0.0 6.0 0.00 0.00 0.00 54 1009.2
20260507171121 63 44 3.0 7.0 0.00 0.00 0.00 53 1009.0
20260507170619 63 35 4.0 6.0 0.00 0.00 0.00 53 1009.0
20260507170115 62 104 1.0 3.0 0.00 0.00 0.00 57 1009.1
20260507165611 61 77 3.0 7.0 0.00 0.00 0.00 56 1009.3
20260507165108 62 148 2.0 6.0 0.00 0.00 0.00 56 1009.4
20260507164604 61 141 3.0 6.0 0.00 0.00 0.00 57 1009.5
20260507164101 59 194 1.0 6.0 0.00 0.00 0.00 60 1009.4
20260507163558 59 125 1.0 2.0 0.00 0.00 0.00 58 1009.7
20260507163056 59 335 1.0 5.0 0.00 0.00 0.00 59 1009.5
20260507162555 60 97 3.0 5.0 0.00 0.00 0.00 58 1009.5
20260507162053 60 131 1.0 3.0 0.00 0.00 0.00 59 1009.7
20260507161549 59 147 1.0 1.0 0.00 0.00 0.00 59 1009.5
20260507161046 58 33 1.0 3.0 0.00 0.00 0.00 61 1009.7
20260507160542 59 151 3.0 6.0 0.00 0.00 0.00 61 1009.7
20260507160038 58 179 2.0 3.0 0.00 0.00 0.00 59 1009.8
20260507155534 58 65 4.0 6.0 0.00 0.00 0.00 61 1009.9
20260507155031 56 130 0.0 3.0 0.00 0.00 0.00 61 1010.0
20260507154528 58 115 1.0 7.0 0.00 0.00 0.00 62 1010.0
20260507154025 57 85 2.0 5.0 0.00 0.00 0.00 66 1010.2
20260507153522 56 73 3.0 6.0 0.00 0.00 0.00 65 1010.2
20260507153018 56 97 4.0 5.0 0.00 0.00 0.00 65 1010.0
20260507152514 55 103 6.0 7.0 0.00 0.00 0.00 65 1010.2
20260507152011 54 134 4.0 6.0 0.00 0.00 0.00 66 1010.4
20260507151507 55 128 3.0 6.0 0.00 0.00 0.00 66 1010.2
20260507151004 55 88 5.0 9.0 0.00 0.00 0.00 67 1010.4
20260507150501 55 84 3.0 6.0 0.00 0.00 0.00 64 1010.1
20260507145957 56 80 2.0 5.0 0.00 0.00 0.00 64 1010.4
20260507145452 55 194 0.0 2.0 0.00 0.00 0.00 61 1010.6
20260507144950 55 215 1.0 3.0 0.00 0.00 0.00 63 1010.6
20260507144447 57 69 6.0 7.0 0.00 0.00 0.00 62 1010.6
20260507143943 55 104 0.0 2.0 0.00 0.00 0.00 62 1010.9
20260507143441 55 203 2.0 2.0 0.00 0.00 0.00 66 1010.6
20260507142938 54 134 2.0 3.0 0.00 0.00 0.00 66 1010.8
20260507142433 54 75 2.0 3.0 0.00 0.00 0.00 64 1010.9
20260507141931 53 76 1.0 3.0 0.00 0.00 0.00 67 1011.0
20260507141427 53 143 1.0 3.0 0.00 0.00 0.00 67 1011.0
20260507140924 52 74 4.0 5.0 0.00 0.00 0.00 68 1011.1
20260507140420 51 79 4.0 6.0 0.00 0.00 0.00 70 1011.3
20260507135918 51 62 1.0 3.0 0.00 0.00 0.00 72 1011.3
20260507135414 51 78 4.0 6.0 0.00 0.00 0.00 71 1011.4
20260507134912 50 65 3.0 5.0 0.00 0.00 0.00 74 1011.2
20260507134408 50 65 3.0 6.0 0.00 0.00 0.00 73 1011.5
20260507133904 50 81 1.0 3.0 0.00 0.00 0.00 74 1011.3
20260507133400 51 79 1.0 2.0 0.00 0.00 0.00 78 1011.4
20260507132859 50 91 1.0 3.0 0.00 0.00 0.00 81 1011.5
20260507132355 50 87 2.0 2.0 0.00 0.00 0.00 81 1011.6
20260507131852 50 69 2.0 5.0 0.00 0.00 0.00 82 1011.4
20260507131349 50 58 3.0 3.0 0.00 0.00 0.00 82 1011.7
20260507130846 50 127 0.0 0.0 0.00 0.00 0.00 82 1011.7
20260507130343 50 115 0.0 0.0 0.00 0.00 0.00 84 1011.7
20260507125842 50 118 0.0 3.0 0.00 0.00 0.00 84 1012.0
20260507125339 50 130 1.0 1.0 0.00 0.00 0.00 85 1011.8
20260507124836 49 151 0.0 1.0 0.00 0.00 0.00 86 1011.7
20260507124332 49 82 1.0 2.0 0.00 0.00 0.00 87 1011.8
20260507123831 49 178 0.0 0.0 0.00 0.00 0.00 88 1011.7
20260507123328 49 83 1.0 2.0 0.00 0.00 0.00 89 1011.4
20260507122824 49 86 1.0 5.0 0.00 0.00 0.00 88 1011.6
20260507122319 49 107 1.0 3.0 0.00 0.00 0.00 88 1011.4
20260507121816 49 323 1.0 2.0 0.00 0.00 0.00 89 1011.4
20260507121311 49 89 1.0 2.0 0.00 0.00 0.00 89 1011.3
20260507120808 49 72 0.0 1.0 0.00 0.00 0.00 89 1011.2
20260507120304 49 69 1.0 2.0 0.00 0.00 0.00 89 1011.0
20260507115801 49 80 1.0 2.0 0.00 0.00 0.00 88 1011.2
20260507115256 49 89 0.0 0.0 0.00 0.00 0.00 88 1011.2
20260507114752 49 57 4.0 5.0 0.00 0.00 0.00 89 1011.1
20260507114250 49 111 0.0 1.0 0.00 0.00 0.00 89 1011.0
20260507113747 49 64 2.0 3.0 0.00 0.00 0.00 89 1010.9
20260507113244 49 76 0.0 2.0 0.00 0.00 0.00 89 1011.1
20260507112742 49 74 2.0 2.0 0.00 0.00 0.00 89 1010.9
20260507112238 49 39 0.0 1.0 0.00 0.00 0.00 89 1010.8
20260507111737 49 89 0.0 1.0 0.00 0.00 0.00 90 1010.8
20260507111233 49 82 1.0 2.0 0.00 0.00 0.00 90 1010.6
20260507110728 49 91 1.0 1.0 0.00 0.00 0.00 90 1010.8
20260507110225 49 91 1.0 1.0 0.00 0.00 0.00 90 1010.5
20260507105722 49 312 0.0 0.0 0.00 0.00 0.00 90 1010.6
20260507105218 49 319 0.0 0.0 0.00 0.00 0.00 91 1010.5
20260507104716 49 320 0.0 0.0 0.00 0.00 0.00 91 1010.9
20260507104212 49 320 0.0 1.0 0.00 0.00 0.00 91 1010.7
20260507103708 48 336 1.0 1.0 0.00 0.00 0.00 90 1010.6
20260507103205 48 292 1.0 1.0 0.00 0.00 0.00 91 1010.0
20260507102701 48 319 0.0 0.0 0.00 0.00 0.00 91 1010.5
20260507102158 48 308 0.0 0.0 0.00 0.00 0.00 91 1010.5
20260507101653 48 308 0.0 0.0 0.00 0.00 0.00 91 1010.5
20260507101149 48 307 1.0 1.0 0.00 0.00 0.00 92 1010.6
20260507100647 48 307 1.0 1.0 0.00 0.00 0.00 92 1010.8
20260507100145 48 307 0.0 1.0 0.00 0.00 0.00 92 1010.4
20260507095643 48 314 0.0 1.0 0.00 0.00 0.00 92 1010.5
20260507095139 48 318 2.0 2.0 0.00 0.00 0.00 93 1010.2
20260507094635 48 99 0.0 0.0 0.00 0.00 0.00 93 1010.2
20260507094132 48 189 0.0 1.0 0.00 0.00 0.00 93 1010.5
20260507093630 48 255 1.0 2.0 0.00 0.00 0.00 93 1010.5
20260507093128 48 277 0.0 1.0 0.00 0.00 0.00 93 1010.4
20260507092625 48 275 2.0 2.0 0.00 0.00 0.00 93 1010.1
20260507092121 48 14 2.0 2.0 0.00 0.00 0.00 92 1010.1
20260507091618 48 199 1.0 2.0 0.00 0.00 0.00 92 1010.4
20260507091114 48 112 1.0 2.0 0.00 0.00 0.00 92 1010.2
20260507090610 48 324 2.0 3.0 0.00 0.00 0.00 91 1009.9
20260507090107 48 298 0.0 2.0 0.00 0.00 0.00 91 1010.1
20260507085604 48 298 1.0 2.0 0.00 0.00 0.00 91 1010.2
20260507085101 48 217 1.0 1.0 0.00 0.00 0.00 91 1009.9
20260507084557 48 234 1.0 2.0 0.00 0.00 0.00 91 1010.2
20260507084055 49 135 0.0 1.0 0.00 0.00 0.00 91 1009.9
20260507083550 49 87 1.0 1.0 0.00 0.00 0.00 91 1010.1
20260507083048 49 87 1.0 2.0 0.00 0.00 0.00 91 1010.1
20260507082544 49 83 1.0 1.0 0.00 0.00 0.00 91 1010.0
20260507082041 49 67 0.0 3.0 0.00 0.00 0.00 91 1010.2
20260507081537 49 65 2.0 2.0 0.00 0.00 0.00 90 1010.0
20260507081034 50 53 2.0 3.0 0.00 0.00 0.00 89 1010.1
20260507080529 50 76 3.0 3.0 0.00 0.00 0.00 89 1010.2
20260507080026 50 97 0.0 3.0 0.00 0.00 0.00 89 1010.1
20260507075521 50 92 1.0 2.0 0.00 0.00 0.00 89 1010.4
20260507075018 50 64 2.0 2.0 0.00 0.00 0.00 89 1010.4
20260507074515 50 72 1.0 1.0 0.00 0.00 0.00 89 1010.5
20260507074014 50 94 1.0 2.0 0.00 0.00 0.00 89 1010.4
20260507073509 50 83 4.0 5.0 0.00 0.00 0.00 89 1010.4
20260507073006 50 80 1.0 5.0 0.00 0.00 0.00 89 1010.2
20260507072504 51 102 2.0 3.0 0.00 0.00 0.00 89 1009.9
20260507072000 51 75 0.0 5.0 0.00 0.00 0.00 88 1010.2
20260507071457 51 120 3.0 3.0 0.00 0.00 0.00 88 1010.1
20260507070954 51 95 0.0 1.0 0.00 0.00 0.00 89 1010.2
20260507070451 51 88 3.0 5.0 0.00 0.00 0.00 89 1009.9
20260507065948 51 79 3.0 6.0 0.00 0.00 0.00 89 1009.9
20260507065445 51 96 0.0 5.0 0.00 0.00 0.00 89 1010.0
20260507064942 51 72 3.0 5.0 0.00 0.00 0.00 90 1009.9
20260507064440 51 73 1.0 6.0 0.00 0.00 0.00 90 1009.8
20260507063938 52 40 5.0 8.0 0.00 0.00 0.00 90 1009.8
20260507063434 52 82 4.0 7.0 0.00 0.00 0.00 90 1010.0
20260507062931 53 99 4.0 7.0 0.00 0.00 0.00 89 1010.0
20260507062429 53 101 4.0 5.0 0.00 0.00 0.00 88 1009.9
20260507061926 54 57 4.0 5.0 0.00 0.00 0.00 88 1010.2
20260507061424 54 79 1.0 2.0 0.00 0.00 0.00 88 1010.0
20260507060922 54 112 0.0 0.0 0.00 0.00 0.00 88 1010.1
20260507060418 54 108 1.0 2.0 0.00 0.00 0.00 88 1010.0
20260507055915 54 99 0.0 1.0 0.00 0.00 0.00 87 1010.1
20260507055410 54 69 1.0 6.0 0.00 0.00 0.00 87 1010.1
20260507054908 55 94 0.0 2.0 0.00 0.00 0.00 88 1010.2
20260507054403 55 64 3.0 5.0 0.00 0.00 0.00 88 1010.4
20260507053901 55 86 0.0 0.0 0.00 0.00 0.00 89 1010.7
20260507053359 55 122 1.0 1.0 0.00 0.00 0.00 88 1010.8
20260507052857 55 121 0.0 2.0 0.00 0.00 0.00 88 1010.5
20260507052354 55 73 1.0 3.0 0.00 0.00 0.00 88 1010.4
20260507051851 55 108 0.0 1.0 0.00 0.00 0.00 89 1010.5
20260507051349 55 3 1.0 1.0 0.00 0.00 0.00 89 1010.4
20260507050845 55 287 1.0 2.0 0.00 0.00 0.00 89 1010.0
20260507050342 55 76 2.0 5.0 0.00 0.00 0.00 89 1009.9
20260507045839 55 79 3.0 7.0 0.00 0.00 0.00 89 1009.9
20260507045335 55 77 2.0 5.0 0.00 0.00 0.00 89 1010.0
20260507044833 56 84 3.0 5.0 0.00 0.00 0.00 89 1010.0
20260507044329 56 72 3.0 5.0 0.00 0.00 0.00 89 1010.0
20260507043825 56 67 0.0 1.0 0.00 0.00 0.00 88 1009.8
20260507043322 56 87 2.0 6.0 0.00 0.00 0.00 88 1009.9
20260507042818 56 76 5.0 6.0 0.00 0.00 0.00 88 1010.0
20260507042314 56 89 0.0 1.0 0.00 0.00 0.00 89 1010.0
20260507041811 56 30 1.0 2.0 0.00 0.00 0.00 89 1009.9
20260507041307 57 154 0.0 0.0 0.00 0.00 0.00 90 1009.9
20260507040805 56 104 0.0 0.0 0.00 0.00 0.00 91 1009.6
20260507040301 56 121 0.0 1.0 0.00 0.00 0.00 91 1009.2
20260507035757 56 120 0.0 1.0 0.00 0.11 0.11 91 1009.3
20260507035252 56 312 1.0 2.0 0.00 0.11 0.11 92 1009.6
20260507034750 57 273 0.0 1.0 0.00 0.11 0.11 91 1009.6
20260507034246 56 322 1.0 2.0 0.00 0.11 0.11 91 1009.0